Weather in Bolshaya Ryazan

Russia / Samara Oblast     53°15′43″N   49°18′01″E
temp.,
°C
wind,
m/s
gust,
m/s
humid.,
%
clouds,
%
prec.,
mm/h
press.,
hPa
HPBL,
m
3 march, wed
wed301:00−4nw229599 0.1 100223
04:00−6nw239396 0.1 100323
07:00−7nw239499 0.0 100324
10:00−5nw489487 0.1 1005347
13:00−3nw698890 0.1 1005687
16:00−4nw688695 0.1 1006870
19:00−5nw5108799 0.1 1007599
22:00−9wnw359296 0.1 100971
4 march, thu
thu401:00−11w339458 0.0 100933
04:00−12wsw349429 0.0 100886
07:00−11sw489679 0.0 1007190
10:00−4sw6139090 0.0 1006683
13:00−1sw81286100 0.0 1004912
16:000wsw91499100 0.4 10021010
19:00+1wsw71490100 0.1 1002908
22:000wsw71490100 0.3 1002784
5 march, fri
fri501:000sw61293100 0.1 1002635
04:00−1sw61391100 0.2 1001501
07:00−1sw61298100 1.3 1001559
10:00+1sw613100100 3.0 1000525
13:00+1sw714100100 0.4 999617
16:000nnw7993100 0.6 1002555
19:00−6nnw51092100 0.3 1007314
22:00−10n469183 0.3 1010102
6 march, sat
sat601:00−11n349092 0.0 101286
04:00−12nne349196 0.0 101399
07:00−12nne3492100 0.0 1013114
10:00−10nne3591100 0.0 1012234
13:00−9n4693100 0.0 1012286
16:00−9n4692100 0.0 1011249
19:00−13n239039 0.0 101222
22:00−14wnw118831 0.0 101320
7 march, sun
sun701:00−13wsw229699 0.1 101328
04:00−13nw489397 0.3 1014202
07:00−18nw23923 0.0 101521
10:00−14wsw23862 0.0 1016151
13:00−11ssw46870 0.0 1015290
16:00−10ssw6108612 0.0 1013486
19:00−10ssw6149399 0.0 1010539
22:00−6ssw9169199 0.1 1008870